Regional Weather Roundup
Issued by NWS Cleveland, OH

Home | Current Version | Previous Version | Graphics & Text | Print | Product List | Glossary On
Versions: 1 2 3 4 5 6 7 8 9 10 11 12 13 14 15 16 17 18 19 20 21 22 23 24 25 26 27 28 29 30 31 32 33 34 35 36 37 38 39 40 41 42 43 44 45 46 47 48 49 50
000
ASUS41 KCLE 052302
RWRCLE
OHIO REGIONAL WEATHER ROUNDUP
NATIONAL WEATHER SERVICE CLEVELAND, OH
700 PM EDT SUN JUL 05 2015

NOTE: "FAIR" INDICATES FEW OR NO CLOUDS BELOW 12,000 FEET WITH NO
SIGNIFICANT WEATHER AND/OR OBSTRUCTIONS TO VISIBILITY.

OHZ001>008-015>018-024>027-034-035-043-044-060000-
   NORTHWEST OHIO

CITY           SKY/WX    TMP DP  RH WIND       PRES   REMARKS
DEFIANCE       PTSUNNY   81  59  47 E3        30.07F
FINDLAY        PTSUNNY   79  58  48 E7        30.07S
TOLEDO EXPRESS PTSUNNY   80  55  42 NE9       30.08R
TOLEDO EXEC    PTSUNNY   78  53  41 NE6       30.09S
LIMA           CLOUDY    77  60  55 SE5       30.08F
$$

OHZ009>014-019>023-028>033-038-089-060000-
   NORTHEAST OHIO

CITY           SKY/WX    TMP DP  RH WIND       PRES   REMARKS
CLE-HOPKINS    CLOUDY    73  60  63 N8        30.11F
CLE-LAKEFRONT  CLOUDY    72  64  76 NE12      30.08F
CUY CO. ARPT   CLOUDY    75  64  69 E9        30.10F
LORAIN-ELYRIA  CLOUDY    73  60  63 E7        30.10S
ASHTABULA      CLOUDY    74  62  66 NE3       30.12F
AKRON-CANTON   CLOUDY    76  58  53 NE6       30.11S
WOOSTER        CLOUDY    75  62  64 NE3       30.11S
MANSFIELD      CLOUDY    75  60  59 E6        30.11F
YOUNGSTOWN     CLOUDY    76  56  49 E3        30.11F
$$

OHZ042-051>053-060>062-070>072-077>081-060000-
  SOUTHWEST OHIO

CITY           SKY/WX    TMP DP  RH WIND       PRES   REMARKS
CINC-COVINGTON CLOUDY    78  61  55 N6        30.07F
CINC-LUNKEN    CLOUDY    78  62  57 N3        30.05F
HAMILTON       CLOUDY    77  65  66 CALM      30.07F
DAYTON         CLOUDY    76  63  64 NE5       30.09S
WRIGHT-PAT AFB CLOUDY    76  58  54 E5        30.07F
DAYTON GENERAL CLOUDY    75  61  61 E5        30.07F
WILMINGTON     CLOUDY    76  61  59 CALM      30.07F
$$

OHZ036-037-039>041-045>050-054>059-063>069-073>076-082>088-060000-
  CENTRAL AND SOUTHEAST OHIO

CITY           SKY/WX    TMP DP  RH WIND       PRES   REMARKS
COLUMBUS       CLOUDY    76  63  64 N6        30.06F
OSU AIRPORT    CLOUDY    77  62  59 N5        30.07F
BOLTON FIELD   SUNNY     77  64  65 CALM      30.07F
RICKENBACK AFB NOT AVBL
NEWARK         CLOUDY    79  63  57 N3        30.07F
MARION         CLOUDY    76  59  55 E5        30.09F
LANCASTER      CLOUDY    77  66  68 N5        30.07F
ZANESVILLE     NOT AVBL
NEW PHILLY     CLOUDY    78  63  59 E5        30.09S
$$



USA.gov is the U.S. government's official web portal to all federal, state and local government web resources and services.